www.pogodaiklimat.ru

Погода и климат >> Архив погоды >> Россия >> Сахалинская область >> Оха


ПОГОДА в Оха

  • Прогноз погоды в Оха
  • Монитор погоды в Оха
  • Климат города

АРХИВ ПОГОДЫ в Оха

Время (UTC), дата Ветер
(напр.,м/с)
 
Видим.   Явления Облачность Т
(С)
Тd
(С)
f
(%)
Тe
(С)
Тes
(С)
Комфортность P
(гПа)
Po
(гПа)
Тmin
(С)
Tmax
(С)
R
(мм)
R24
(мм)
S
(см)
18 19.06 З 1-1
{2}
20 км 9/9 330 м
[Sc]
+5.9 +5.3 96 +5 +5 1013.6 1008.9
21 19.06 СЗ 2-4
{4}
20 км 10/10 330 м
[Sc]
+7.6 +5.3 85 +6 +6 1013.8 1009.1 +2.4
00 20.06 СЗ 1-3
{4}
20 км 10/10 360 м
[Sc]
+8.5 +5.5 81 +8 +8 1014.3 1009.6
06 20.06 СВ 1-4
{4}
20 км 4/4 600 м
[Sc]
+15.7 +6.7 55 +16 +23 1011.7 1007.1
12 20.06 ЮВ 4-5
{7}
20 км ясно +7.1 +5.8 91 +3 +3 1011.2 1006.5
18 20.06 ЮВ 4-5
{6}
20 км местами туман поземный ясно +2.5 +2.4 99 -3 -3 1009.2 1004.5
21 20.06 Ю 2-4
{5}
20 км 3/0
[Ci fib]
+11.6 +7.4 75 +11 +14 1008.2 1003.7 +2.4
00 21.06 ЮЗ 5-9
{9}
20 км 3/0
[Ci fib]
+20.8 +6.8 40 +22 +28 комфорт 1006.0 1001.5
06 21.06 ЮЗ 6-10
{10}
20 км 4/0
[Ci fib]
+26.6 +1.9 20 +25 +28 комфорт 1001.5 997.2
09 21.06 ЮЗ 6-8
{11}
20 км 8/0
[Ci sp]
+23.9 +5.9 31 +24 +24 комфорт 1000.6 996.3 +26.9
12 21.06 Ю 4-7
{12}
20 км 8/0
[Ac trans Ci sp]
+15.8 +9.0 64 +15 +15 1000.5 996.0
18 21.06 ЮЗ 2-4
{6}
20 км слабый ливневой дождь 8/8 500 м
[Cb cap]
+11.5 +10.4 93 +10 +10 1000.9 996.3
21 21.06 З 2-3
{5}
20 км {ливн. осадки} 9/9 150 м
[St]
+12.0 +11.2 95 +11 +11 1003.2 998.6 +10.9 0.5
00 22.06 СВ 3-6
{7}
20 км {ливн. осадки} 3/0
[Ac trans]
+17.7 +7.9 53 +18 +26 1003.9 999.4
06 22.06 В 2-4
{6}
20 км 3/0
[Ci sp]
+18.1 +8.3 53 +19 +28 1004.5 1000.0
09 22.06 ЮВ 4-6
{6}
20 км 3/3 600 м
[Cu hum]
+15.1 +7.7 61 +14 +15 1004.5 1000.0 +20.0
12 22.06 ЮВ 3-4
{7}
20 км 5/3 300 м
[Sc Ci fib]
+9.1 +6.8 86 +7 +7 1004.3 999.7
18 22.06 С 2-4
{5}
20 км 8/8 420 м
[Sc]
+9.8 +8.1 89 +8 +8 1002.9 998.3
21 22.06 СВ 3-6
{7}
20 км 8/4 300 м
[Sc Ac trans]
+9.9 +7.3 84 +8 +9 1003.4 998.8 +7.4
00 23.06 СЗ 3-7
{7}
20 км 9/9 480 м
[Sc]
+12.1 +7.9 75 +11 +12 1003.3 998.7
06 23.06 СЗ 4-7
{11}
20 км слабый ливневой дождь 10/10 480 м
[Cb cap]
+9.3 +6.5 83 +6 +6 1003.8 999.2
09 23.06 З 2-5
{8}
4000 м дымка {ливн. осадки} 10/10 210 м
[Cb cap]
+7.9 +7.2 95 +6 +6 1003.8 999.2 +12.3 0.3
12 23.06 СВ 2-3
{5}
2000 м слабый ливневой дождь 10/10 120 м
[Cb cap]
+6.9 +6.6 98 +4 +4 1004.7 1000.0
18 23.06 В 2-4
{5}
20 км в посл. час ливневой дождь 10/10 300 м
[Cb cap]
+7.7 +7.5 99 +5 +5 1005.9 1001.2
21 23.06 В 3-6
{6}
4000 м дымка 10/10 180 м
[Cb cap]
+8.3 +7.7 96 +5 +5 1008.3 1003.6 +6.7 3
00 24.06 В 3-6
{8}
20 км 10/10 180 м
[St]
+8.7 +8.3 97 +6 +6 1010.2 1005.6
06 24.06 В 4-6
{8}
20 км 10/10 400 м
[Sc]
+10.5 +6.9 78 +8 +8 1012.1 1007.5
09 24.06 ЮВ 3-6
{7}
20 км 10/10 240 м
[St]
+9.0 +6.6 85 +7 +7 1013.4 1008.7 +12.0
12 24.06 ЮВ 4-6
{7}
20 км 10/10 270 м
[Cb cap]
+7.7 +5.8 88 +4 +4 1014.4 1009.7
18 24.06 ЮВ 2-3
{5}
20 км 10/10 150 м
[St]
+7.0 +6.3 95 +5 +5 1014.6 1009.9
21 24.06 Ю 4-6
{8}
20 км 10/10 120 м
[St]
+6.4 +5.4 93 +3 +3 1014.6 1009.9 +6.4
00 25.06 ЮВ 3-6
{7}
20 км 3/3 300 м
[St]
+12.9 +6.4 65 +12 +19 1013.9 1009.3 +6.3
06 25.06 ЮВ 6-9
{11}
20 км 3/3 300 м
[St]
+17.1 +6.6 50 +16 +19 1010.7 1006.2
09 25.06 ЮВ 5-8
{10}
20 км 3/0
[Ci fib]
+14.1 +7.1 63 +13 +13 1010.5 1006.0 +17.9
12 25.06 ЮВ 4-6
{10}
20 км 3/0
[Ci fib]
+8.8 +5.7 81 +6 +6 1011.1 1006.4
18 25.06 Ю 3-4
{6}
20 км 4/0
[Ci fib]
+3.7 +3.5 99 -0 -0 1010.8 1006.1
21 25.06 ЮВ 5-7
{7}
20 км 8/4 200 м
[St Ci sp]
+8.1 +6.8 91 +4 +5 1011.2 1006.6 +3.4
00 26.06 ЮВ 5-8
{9}
20 км 3/0
[Ci fib]
+13.4 +5.5 59 +12 +18 1011.9 1007.3
06 26.06 В 5-8
{10}
20 км 3/3 200 м
[St]
+12.2 +5.9 65 +10 +13 1012.3 1007.7
09 26.06 В 4-6
{8}
20 км 6/6
[St]
+9.0 +5.6 79 +6 +6 1012.9 1008.2 +15.8
12 26.06 В 3-5
{6}
20 км 10/10 210 м
[St]
+7.3 +5.9 91 +4 +4 1013.3 1008.6

 

Местоположение метеостанции Оха (Сахалинская область, Россия): широта 53.50 долгота 142.90 высота над уровнем моря 37 м.

В архиве по умолчанию представлена погода в Оха за последнюю неделю. Архивные данные за месяц целиком и за предыдущие месяцы, начиная с января 2011 года, Вы можете получить, выбрав интересующий диапазон дат из раскрывающегося списка и нажав кнопку "Ввод!".

Внимание! Время в таблицах - всемирное. Для получения местного времени необходимо прибавить поправку, которая в Оха равна 11 ч.

Смотрите также архив погоды в соседних городах и на ближайших метеорологических станциях:

Погода в Одопту (Сахалинская область, Россия) (23 км)
Погода в Москальво (Сахалинская область, Россия) (28 км)
Погода в Ныврово (Сахалинская область, Россия) (94 км)
Погода в Байдукове (Хабаровский край, Россия) (102 км)
Погода в Вал (Сахалинская область, Россия) (130 км)
Погода в Джаоре (Хабаровский край, Россия) (146 км)
Погода в Николаевск-на-Амуре (Хабаровский край, Россия) (151 км)
Погода в Погибях (Сахалинская область, Россия) (167 км)
Погода в Ногликах (Сахалинская область, Россия) (176 км)
Погода в Литке (Хабаровский край, Россия) (178 км)

Пояснения к столбцам:

Ветер - указаны скорость ветра в м/с - средняя за 10 мин, порывы в срок и между сроками (в фигурных скобках) и направление, откуда дует ветер: С - северный, СВ - северо-восточный, В - восточный, ЮВ - юго-восточный, Ю - южный, ЮЗ - юго-западный, З - западный, СЗ - северо-западный.
Видимость - горизонтальная дальность видимости в метрах или километрах. При видимости от 1 до 10 км при отсутствии осадков обычно наблюдается дымка, при ухудшении видимости до 1 км и менее - туман. В сухую погоду видимость может ухудшаться дымом, пылью или мглою.
Явления - указаны атмосферные явления, наблюдавшиеся в срок или в последний час перед сроком; фигурными скобками обозначены явления, наблюдавшиеся между сроками (за 1-3 часа до срока); квадратными скобками обозначены град или гололедные отложения с указанием их диаметра в мм.
Облачность - указаны через наклонную черту общая и нижняя облачность в баллах и высота нижней границы облаков в метрах; квадратными скобками обозначены формы облаков: Ci - перистые, Cs - перисто-слоистые, Cc - перисто-кучевые, Ac - высококучевые, As - высокослоистые, Sc - слоисто-кучевые, Ns - слоисто-дождевые, Cu - кучевые, Cb - кучево-дождевые. Подробнее классификацию облаков см. в Атласе облаков (PDF).
T - Температура воздуха - температура, измеренная на высоте 2 м над землей.
Td - Температура точки росы - температура, при понижении до которой содержащийся в воздухе водяной пар достигнет насыщения.
f - Относительная влажность воздуха - влажноcть воздуха, измеренная на высоте 2 м над землей.
Te - Эффективная температура - температура, которую ощущает одетый по сезону человек в тени. Характеристика душности погоды. При расчете учитывается влияние влажности воздуха и скорости ветра на теплоощущения человека.
Tes - Эффективная температура на солнце - температура, которую ощущает человек, с поправкой на солнечный нагрев. Характеристика знойности погоды. Зависит от высоты солнца над горизонтом, облачности и скорости ветра. Ночью, в пасмурную погоду, а также при ветре 12 м/с и более поправка равна нулю.
P - Атмосферное давление - приведенное к уровню моря атмосферное давление.
Po - Атмосферное давление - измеренное на уровне метеостанции атмосферное давление.
Tmin - Минимальная температура - минимум температуры воздуха на высоте 2 м над землей.
Tmax - Максимальная температура - максимум температуры воздуха на высоте 2 м над землей.
R - Количество осадков - Количество выпавших осадков за период времени, мм. При наведении курсора мыши на число - период времени, за который выпало указанное количество осадков.
R24 - Количество осадков - Количество выпавших осадков за 24 часа, мм.
S - Снежный покров - Высота снежного покрова, см. При наведении курсора мыши на число - состояние снежного покрова и степень покрытия местности в баллах.